Location: Byhalia Creek
(34.8270°N, 89.8040°W)
Time: 20:37:53
(UTC+00:00)

Cosmos 2333 Rocket - Pass Details

Date: 22 April 2026
Orbit: 841 x 861 km, 70.8° (Epoch: 21 May)

Event Time Altitude Azimuth Distance (km) Brightness Sun altitude
Rises 09:21:56 0° 325° (NW) 3,409 5.4 -22.5°
Reaches altitude 10° 09:24:42 10° 314° (NW) 2,473 4.5 -22.1°
Enters shadow 09:26:40 19° 298° (WNW) 1,921 3.8 -21.7°
